Amateur Radio Satellites - All Passes

Search period start: 24 May 2013 10:28
Search period end: 25 May 2013 10:28
Location: Worth Mountain WMA, 34.9569°N, 81.4819°W

Satellite Date Start Highest point End Downlink Frequencies (MHz)
Time Altitude Azimuth
ISS 24 May 10:36:49 10:39:54 33° 228° (SW) 10:42:57 145.800 FM
Oscar 11 24 May 10:50:46 10:54:54 40° 99° (E) 10:59:00 145.825 FM, Beacon 2401.500 USB
PANSAT 24 May 10:51:06 10:53:36 16° 162° (SSE) 10:56:06 not established
JAS-2 24 May 11:16:07 11:22:51 86° 103° (ESE) 11:28:44 435.800 - 435.900 CW/SSB, 435.910 FM
MaSat-1 24 May 11:36:47 11:39:24 25° 59° (ENE) 11:41:40 437.345 MHz
HO-68 24 May 11:57:31 12:04:04 40° 293° (WNW) 12:10:38 435.675 MHz FM
UOSAT-12 24 May 12:03:29 12:07:52 51° 302° (WNW) 12:12:18 437.025 FM, 437.400 FM
OPAL 24 May 12:07:50 12:12:50 77° 287° (WNW) 12:17:46 ?
Oscar 11 24 May 12:28:12 12:30:45 15° 293° (WNW) 12:33:19 145.825 FM, Beacon 2401.500 USB
PANSAT 24 May 12:30:04 12:33:29 29° 174° (S) 12:36:54 not established
JAS-2 24 May 13:03:39 13:06:44 14° 303° (WNW) 13:09:41 435.800 - 435.900 CW/SSB, 435.910 FM
Oscar 19 24 May 13:10:17 13:12:20 12° 63° (ENE) 13:14:22 437.125 CW, 437.150 USB
Uribyol 2 24 May 13:11:35 13:12:43 11° 62° (ENE) 13:13:50 436.500 FM
Oscar 16 24 May 13:46:56 13:51:35 35° 70° (ENE) 13:56:16 437.025 USB, Beacon 2401.1428
AO-27 24 May 14:00:10 14:04:46 34° 70° (ENE) 14:09:23 436.795 MHz FM
ITAMSAT 1 24 May 14:06:12 14:10:56 38° 71° (ENE) 14:15:41 435.822 SSB
PANSAT 24 May 14:10:05 14:13:27 28° 187° (S) 14:16:49 not established
Saudisat 1A 24 May 14:15:54 14:19:33 23° 51° (NE) 14:23:07 436.775 MHz
AO-Echo 24 May 14:37:03 14:40:47 23° 69° (ENE) 14:44:28 ?
Oscar 19 24 May 14:45:50 14:51:01 72° 258° (WSW) 14:56:14 437.125 CW, 437.150 USB
Uribyol 2 24 May 14:46:17 14:51:27 82° 257° (WSW) 14:56:40 436.500 FM
Oscar 16 24 May 15:26:50 15:30:58 24° 265° (W) 15:35:07 437.025 USB, Beacon 2401.1428
AO-27 24 May 15:40:08 15:44:17 24° 264° (W) 15:48:28 436.795 MHz FM
ITAMSAT 1 24 May 15:46:35 15:50:30 22° 265° (W) 15:54:27 435.822 SSB
PANSAT 24 May 15:51:09 15:53:18 14° 199° (SSW) 15:55:27 not established
TMSAT-1 24 May 15:51:29 15:56:02 30° 69° (ENE) 16:00:35 436.925 FM
PCSat 24 May 15:53:04 15:56:31 17° 50° (NE) 15:59:56 145.825 MHz
Saudisat 1A 24 May 15:55:14 15:59:16 33° 247° (WSW) 16:03:13 436.775 MHz
Uosat F 24 May 16:08:32 16:13:32 87° 77° (ENE) 16:18:34 435.120 FM
Gurwin Techsat 1B 24 May 16:13:34 16:18:51 77° 75° (ENE) 16:24:10 435.225 FM
AO-Echo 24 May 16:15:05 16:19:24 31° 262° (W) 16:23:39 ?
RS-15 24 May 16:16:52 16:28:40 61° 112° (ESE) 16:40:01 29.354 - 29.394 USB, Beacon 29.352 USB
Sapphire 24 May 16:25:16 16:29:57 29° 55° (NE) 16:34:37 437.095 MHz 1200 baud AX-25 AFSK
AO-7 24 May 16:59:21 17:07:19 55° 67° (ENE) 17:15:20 29.400 - 29.500 MHz
TMSAT-1 24 May 17:31:21 17:35:52 29° 264° (W) 17:40:25 436.925 FM
PCSat 24 May 17:35:02 17:40:25 66° 247° (WSW) 17:45:45 145.825 MHz
SO-50 24 May 17:46:59 17:51:22 47° 57° (ENE) 17:55:41 436.795 FM
Gurwin Techsat 1B 24 May 17:58:36 17:59:19 10° 270° (W) 18:00:03 435.225 FM
Sapphire 24 May 18:08:31 18:13:21 34° 251° (WSW) 18:18:11 437.095 MHz 1200 baud AX-25 AFSK
RS-15 24 May 18:30:35 18:41:34 40° 312° (NW) 18:52:11 29.354 - 29.394 USB, Beacon 29.352 USB
AO-7 24 May 18:53:27 19:00:20 29° 263° (W) 19:07:19 29.400 - 29.500 MHz
JAS-1B 24 May 19:12:54 19:20:27 31° 67° (ENE) 19:27:07 435.800 - 435.900 CW/SSB
STRAND 1 24 May 19:24:19 19:29:13 43° 99° (E) 19:34:06 ?
SO-50 24 May 19:29:07 19:31:31 14° 252° (WSW) 19:33:55 436.795 FM
Hamsat 24 May 19:39:15 19:43:25 69° 76° (ENE) 19:47:38 145.90 MHz
UOSAT-12 24 May 20:36:10 20:40:40 52° 58° (ENE) 20:45:09 437.025 FM, 437.400 FM
HO-68 24 May 20:36:59 20:41:38 19° 59° (ENE) 20:46:16 435.675 MHz FM
SO-67 24 May 20:38:38 20:42:10 66° 260° (W) 20:45:44 435.3500 MHz FM
RS-15 24 May 20:53:20 20:58:38 14° 344° (NNW) 21:03:50 29.354 - 29.394 USB, Beacon 29.352 USB
JAS-1B 24 May 21:01:28 21:10:38 57° 259° (WSW) 21:18:33 435.800 - 435.900 CW/SSB
STRAND 1 24 May 21:04:27 21:08:03 20° 294° (WNW) 21:11:40 ?
JAS-2 24 May 21:22:55 21:29:31 32° 66° (ENE) 21:36:10 435.800 - 435.900 CW/SSB, 435.910 FM
OPAL 24 May 21:43:33 21:46:17 15° 62° (ENE) 21:49:00 ?
Oscar 11 24 May 21:43:39 21:46:57 22° 69° (ENE) 21:50:16 145.825 FM, Beacon 2401.500 USB
UOSAT-12 24 May 22:18:02 22:20:22 14° 252° (WSW) 22:22:42 437.025 FM, 437.400 FM
HO-68 24 May 22:21:25 22:28:32 75° 256° (WSW) 22:35:42 435.675 MHz FM
KITSAT 1 24 May 22:35:20 22:42:57 49° 110° (ESE) 22:50:38 435.175 FM
JAS-2 24 May 23:06:40 23:14:05 52° 261° (W) 23:21:42 435.800 - 435.900 CW/SSB, 435.910 FM
RS-15 24 May 23:11:55 23:18:13 16° 23° (NNE) 23:24:23 29.354 - 29.394 USB, Beacon 29.352 USB
Oscar 11 24 May 23:19:22 23:23:00 27° 264° (W) 23:26:41 145.825 FM, Beacon 2401.500 USB
OPAL 24 May 23:19:29 23:24:38 63° 257° (WSW) 23:29:45 ?
MaSat-1 25 May 00:23:56 00:27:38 15° 102° (ESE) 00:31:05 437.345 MHz
KITSAT 1 25 May 00:31:17 00:38:30 35° 308° (NW) 00:45:47 435.175 FM
AO-40 25 May 00:35:02 03:48:59 27° 126° (SE) 05:22:54 Beacon 2401.320
RS-15 25 May 01:23:28 01:34:12 51° 53° (NE) 01:44:40 29.354 - 29.394 USB, Beacon 29.352 USB
ISS 25 May 01:40:08 01:43:10 36° 132° (SE) 01:46:14 145.800 FM
MaSat-1 25 May 02:02:11 02:09:26 84° 292° (WNW) 02:15:25 437.345 MHz
Oscar 16 25 May 02:03:15 02:06:20 16° 93° (E) 02:09:23 437.025 USB, Beacon 2401.1428
AO-27 25 May 02:17:40 02:20:48 16° 93° (E) 02:23:54 436.795 MHz FM
ITAMSAT 1 25 May 02:23:25 02:26:54 18° 94° (E) 02:30:22 435.822 SSB
Oscar 19 25 May 03:01:04 03:06:07 54° 100° (E) 03:11:07 437.125 CW, 437.150 USB
Uribyol 2 25 May 03:02:38 03:07:41 48° 100° (E) 03:12:42 436.500 FM
ISS 25 May 03:17:23 03:19:57 21° 328° (NNW) 03:22:33 145.800 FM
RS-15 25 May 03:36:18 03:46:11 41° 253° (WSW) 03:55:59 29.354 - 29.394 USB, Beacon 29.352 USB
Oscar 16 25 May 03:40:57 03:45:57 51° 287° (WNW) 03:50:54 437.025 USB, Beacon 2401.1428
MaSat-1 25 May 03:48:49 03:51:58 14° 305° (NW) 03:54:53 437.345 MHz
AO-27 25 May 03:55:30 04:00:34 52° 287° (WNW) 04:05:37 436.795 MHz FM
ITAMSAT 1 25 May 04:01:36 04:06:35 46° 288° (WNW) 04:11:34 435.822 SSB
TMSAT-1 25 May 04:11:44 04:14:48 15° 93° (E) 04:17:52 436.925 FM
Uosat F 25 May 04:20:02 04:24:38 35° 98° (E) 04:29:12 435.120 FM
Saudisat 1A 25 May 04:22:10 04:24:04 13° 107° (ESE) 04:25:59 436.775 MHz
AO-Echo 25 May 04:24:47 04:29:34 78° 284° (WNW) 04:34:28 ?
Gurwin Techsat 1B 25 May 04:33:28 04:38:28 40° 99° (E) 04:43:26 435.225 FM
Oscar 19 25 May 04:41:55 04:44:59 16° 295° (WNW) 04:48:02 437.125 CW, 437.150 USB
Uribyol 2 25 May 04:43:15 04:46:46 19° 295° (WNW) 04:50:16 436.500 FM
AO-7 25 May 05:06:01 05:11:55 21° 94° (E) 05:17:46 29.400 - 29.500 MHz
TMSAT-1 25 May 05:49:51 05:55:01 54° 287° (WNW) 06:00:10 436.925 FM
Saudisat 1A 25 May 05:58:46 06:03:14 57° 302° (WNW) 06:07:47 436.775 MHz
Uosat F 25 May 05:59:19 06:03:12 23° 293° (WNW) 06:07:04 435.120 FM
Gurwin Techsat 1B 25 May 06:14:10 06:18:08 22° 293° (WNW) 06:22:06 435.225 FM
PCSat 25 May 06:31:17 06:35:41 26° 107° (ESE) 06:40:06 145.825 MHz
KITSAT 1 25 May 06:33:31 06:38:01 15° 38° (NE) 06:42:29 435.175 FM
STRAND 1 25 May 06:37:12 06:42:01 45° 72° (ENE) 06:46:51 ?
AO-7 25 May 06:56:56 07:05:16 73° 290° (WNW) 07:13:34 29.400 - 29.500 MHz
Sapphire 25 May 07:03:26 07:08:37 50° 111° (ESE) 07:13:50 437.095 MHz 1200 baud AX-25 AFSK
Hamsat 25 May 07:30:14 07:33:03 17° 94° (E) 07:35:52 145.90 MHz
SO-50 25 May 07:59:11 08:03:34 36° 113° (ESE) 08:07:54 436.795 FM
SO-67 25 May 08:10:26 08:11:58 12° 93° (E) 08:13:29 435.3500 MHz FM
ISS 25 May 08:12:07 08:14:07 15° 28° (NNE) 08:16:06 145.800 FM
PCSat 25 May 08:13:56 08:18:53 36° 303° (WNW) 08:23:53 145.825 MHz
STRAND 1 25 May 08:18:03 08:21:24 18° 266° (W) 08:24:45 ?
KITSAT 1 25 May 08:26:55 08:35:02 68° 60° (ENE) 08:43:05 435.175 FM
Sapphire 25 May 08:48:18 08:52:18 21° 308° (NW) 08:56:20 437.095 MHz 1200 baud AX-25 AFSK
JAS-1B 25 May 08:52:01 08:57:39 49° 100° (E) 09:03:07 435.800 - 435.900 CW/SSB
AO-7 25 May 08:52:48 08:56:36 14° 308° (NW) 09:00:24 29.400 - 29.500 MHz
Hamsat 25 May 09:05:12 09:09:11 35° 287° (WNW) 09:13:11 145.90 MHz
SO-50 25 May 09:40:22 09:44:15 24° 308° (NW) 09:48:06 436.795 FM
SO-67 25 May 09:42:19 09:45:29 30° 287° (WNW) 09:48:38 435.3500 MHz FM
ISS 25 May 09:47:47 09:51:08 69° 224° (SW) 09:54:28 145.800 FM
HO-68 25 May 09:53:42 09:59:24 25° 96° (E) 10:05:04 435.675 MHz FM

Developed and maintained by Chris Peat, Heavens-Above GmbH. Please read the updated FAQ before sending e-mail. Imprint. DLR
